Time,TemperatureF,DewpointF,PressureIn,WindDirection,WindDirectionDegrees,WindSpeedMPH,WindSpeedGustMPH,Humidity,HourlyPrecipIn,Conditions,Clouds,dailyrainin,SoftwareType,DateUTC
2017-07-23 00:02:00,74.4,69.6,30.02,SSW,198,0.0,0.0,85,0.00,,---,0.00,VWS V15.00,2017-07-23 04:02:00,
2017-07-23 00:07:00,74.2,69.4,30.02,SSW,198,0.0,0.0,85,0.00,,---,0.00,VWS V15.00,2017-07-23 04:07:00,
2017-07-23 00:12:00,74.3,69.5,30.02,SSW,198,0.0,0.0,85,0.00,,---,0.00,VWS V15.00,2017-07-23 04:12:00,
2017-07-23 00:17:00,74.2,69.4,30.02,SSW,198,0.0,0.0,85,0.00,,---,0.00,VWS V15.00,2017-07-23 04:17:00,
2017-07-23 00:22:00,74.2,69.4,30.02,SSW,198,0.0,0.0,85,0.00,,---,0.00,VWS V15.00,2017-07-23 04:22:00,
2017-07-23 00:27:00,74.1,69.3,30.02,SSW,198,0.0,0.0,85,0.00,,---,0.00,VWS V15.00,2017-07-23 04:27:00,
2017-07-23 00:32:00,74.1,69.3,30.02,SSW,198,0.0,0.0,85,0.00,,---,0.00,VWS V15.00,2017-07-23 04:32:00,
2017-07-23 00:37:00,74.1,69.3,30.02,SSW,198,0.0,0.0,85,0.00,,---,0.00,VWS V15.00,2017-07-23 04:37:00,
2017-07-23 00:42:00,74.0,69.2,30.02,SSW,198,0.0,0.0,85,0.00,,---,0.00,VWS V15.00,2017-07-23 04:42:00,
2017-07-23 00:47:00,74.0,69.2,30.02,SSW,198,0.0,0.0,85,0.00,,---,0.00,VWS V15.00,2017-07-23 04:47:00,
2017-07-23 00:52:00,74.0,69.2,30.01,SSW,198,0.0,0.0,85,0.00,,---,0.00,VWS V15.00,2017-07-23 04:52:00,
2017-07-23 00:57:00,74.1,69.3,30.02,SSW,198,0.0,0.0,85,0.00,,---,0.00,VWS V15.00,2017-07-23 04:57:00,
2017-07-23 01:02:00,74.2,69.4,30.01,SSW,198,0.0,0.0,85,0.00,,---,0.00,VWS V15.00,2017-07-23 05:02:00,
2017-07-23 01:07:00,74.2,69.4,30.01,SSW,198,0.0,0.0,85,0.00,,---,0.00,VWS V15.00,2017-07-23 05:07:00,
2017-07-23 01:12:00,74.2,69.4,30.01,SSW,198,0.0,0.0,85,0.00,,---,0.00,VWS V15.00,2017-07-23 05:12:00,
2017-07-23 01:17:00,74.2,69.4,30.01,SSW,198,0.0,0.0,85,0.00,,---,0.00,VWS V15.00,2017-07-23 05:17:00,
2017-07-23 01:22:00,74.2,69.4,30.01,SSW,198,0.0,0.0,85,0.00,,---,0.00,VWS V15.00,2017-07-23 05:22:00,
2017-07-23 01:27:00,74.3,69.5,30.01,SSW,198,0.0,0.0,85,0.00,,---,0.00,VWS V15.00,2017-07-23 05:27:00,
2017-07-23 01:32:00,74.3,69.5,30.01,SSW,198,0.0,0.0,85,0.00,,---,0.00,VWS V15.00,2017-07-23 05:32:00,
2017-07-23 01:37:00,74.4,69.6,30.01,SSW,198,0.0,0.0,85,0.00,,---,0.00,VWS V15.00,2017-07-23 05:37:00,
2017-07-23 01:42:00,74.4,69.6,30.01,SSW,198,0.0,0.0,85,0.00,,---,0.00,VWS V15.00,2017-07-23 05:42:00,
2017-07-23 01:47:00,74.4,69.6,30.01,SSW,198,0.0,0.0,85,0.00,,---,0.00,VWS V15.00,2017-07-23 05:47:00,
2017-07-23 01:51:00,74.4,69.6,30.01,SSW,198,0.0,0.0,85,0.00,,---,0.00,VWS V15.00,2017-07-23 05:51:00,
2017-07-23 01:56:00,74.4,69.6,30.01,SSW,198,0.0,0.0,85,0.00,,---,0.00,VWS V15.00,2017-07-23 05:56:00,
2017-07-23 02:01:00,74.4,69.6,30.00,SSW,198,0.0,0.0,85,0.00,,---,0.00,VWS V15.00,2017-07-23 06:01:00,
2017-07-23 02:06:00,74.5,69.7,30.00,SSW,198,0.0,0.0,85,0.00,,---,0.00,VWS V15.00,2017-07-23 06:06:00,
2017-07-23 02:11:00,74.5,69.7,30.00,SSW,198,0.0,0.0,85,0.00,,---,0.00,VWS V15.00,2017-07-23 06:11:00,
2017-07-23 02:16:00,74.5,69.7,30.00,SSW,198,0.0,0.0,85,0.00,,---,0.00,VWS V15.00,2017-07-23 06:16:00,
2017-07-23 02:21:00,74.5,69.7,30.00,SSW,198,0.0,0.0,85,0.00,,---,0.00,VWS V15.00,2017-07-23 06:21:00,
2017-07-23 02:26:00,74.5,69.7,30.00,SSW,198,0.0,0.0,85,0.00,,---,0.00,VWS V15.00,2017-07-23 06:26:00,
2017-07-23 02:31:00,74.5,69.7,30.00,SSW,198,0.0,0.0,85,0.00,,---,0.00,VWS V15.00,2017-07-23 06:31:00,
2017-07-23 02:36:00,74.5,69.7,30.00,SSW,198,0.0,0.0,85,0.00,,---,0.00,VWS V15.00,2017-07-23 06:36:00,
2017-07-23 02:41:00,74.5,69.7,30.00,SSW,198,0.0,0.0,85,0.00,,---,0.00,VWS V15.00,2017-07-23 06:41:00,
2017-07-23 02:46:00,74.5,69.7,30.00,SSW,198,0.0,0.0,85,0.00,,---,0.00,VWS V15.00,2017-07-23 06:46:00,
2017-07-23 02:51:00,74.5,69.7,29.99,SSW,198,0.0,0.0,85,0.00,,---,0.00,VWS V15.00,2017-07-23 06:51:00,
2017-07-23 02:56:00,74.5,69.7,29.99,SSW,198,0.0,0.0,85,0.00,,---,0.00,VWS V15.00,2017-07-23 06:56:00,
2017-07-23 03:01:00,74.5,69.7,29.99,SSW,198,0.0,0.0,85,0.00,,---,0.00,VWS V15.00,2017-07-23 07:01:00,
2017-07-23 03:06:00,74.5,69.7,29.99,SSW,198,0.0,0.0,85,0.00,,---,0.00,VWS V15.00,2017-07-23 07:06:00,
2017-07-23 03:11:00,74.5,69.7,29.99,SSW,198,0.0,0.0,85,0.00,,---,0.00,VWS V15.00,2017-07-23 07:11:00,
2017-07-23 03:16:00,74.5,69.7,29.99,SSW,198,0.0,0.0,85,0.00,,---,0.00,VWS V15.00,2017-07-23 07:16:00,
2017-07-23 03:21:00,74.6,69.8,29.98,SSW,198,0.0,0.0,85,0.00,,---,0.00,VWS V15.00,2017-07-23 07:21:00,
2017-07-23 03:26:00,74.6,69.8,29.98,SSW,198,0.0,0.0,85,0.00,,---,0.00,VWS V15.00,2017-07-23 07:26:00,
2017-07-23 03:31:00,74.6,69.8,29.98,SSW,198,0.0,0.0,85,0.00,,---,0.00,VWS V15.00,2017-07-23 07:31:00,
2017-07-23 03:36:00,74.6,69.8,29.98,SSW,198,0.0,0.0,85,0.00,,---,0.00,VWS V15.00,2017-07-23 07:36:00,
2017-07-23 03:41:00,74.6,69.8,29.98,SSW,198,0.0,0.0,85,0.00,,---,0.00,VWS V15.00,2017-07-23 07:41:00,
2017-07-23 03:46:00,74.7,69.9,29.98,SSW,198,0.0,0.0,85,0.00,,---,0.00,VWS V15.00,2017-07-23 07:46:00,
2017-07-23 03:51:00,74.7,69.9,29.98,SSW,198,0.0,0.0,85,0.00,,---,0.00,VWS V15.00,2017-07-23 07:51:00,
2017-07-23 03:56:00,74.7,69.9,29.98,SSW,198,0.0,0.0,85,0.00,,---,0.00,VWS V15.00,2017-07-23 07:56:00,
2017-07-23 04:01:00,74.7,69.9,29.97,SSW,198,0.0,0.0,85,0.00,,---,0.00,VWS V15.00,2017-07-23 08:01:00,
2017-07-23 04:06:00,74.7,69.9,29.97,SSW,198,0.0,0.0,85,0.00,,---,0.00,VWS V15.00,2017-07-23 08:06:00,
2017-07-23 04:11:00,74.8,70.0,29.98,SSW,198,0.0,0.0,85,0.00,,---,0.00,VWS V15.00,2017-07-23 08:11:00,
2017-07-23 04:16:00,74.7,69.9,29.97,SSW,198,0.0,0.0,85,0.00,,---,0.00,VWS V15.00,2017-07-23 08:16:00,
2017-07-23 04:21:00,74.7,69.9,29.97,SSW,198,0.0,0.0,85,0.00,,---,0.00,VWS V15.00,2017-07-23 08:21:00,
2017-07-23 04:26:00,74.8,70.0,29.97,SSW,198,0.0,0.0,85,0.00,,---,0.00,VWS V15.00,2017-07-23 08:26:00,
2017-07-23 04:31:00,74.8,70.0,29.97,SSW,198,0.0,0.0,85,0.00,,---,0.00,VWS V15.00,2017-07-23 08:31:00,
2017-07-23 04:36:00,74.8,70.0,29.97,SSW,198,0.0,0.0,85,0.00,,---,0.00,VWS V15.00,2017-07-23 08:36:00,
2017-07-23 04:41:00,74.8,70.0,29.97,SSW,198,0.0,0.0,85,0.00,,---,0.00,VWS V15.00,2017-07-23 08:41:00,
2017-07-23 04:46:00,74.9,70.1,29.97,SSW,198,0.0,0.0,85,0.00,,---,0.00,VWS V15.00,2017-07-23 08:46:00,
2017-07-23 04:51:00,74.9,70.1,29.97,SSW,198,0.0,0.0,85,0.00,,---,0.00,VWS V15.00,2017-07-23 08:51:00,
2017-07-23 04:56:00,74.9,70.1,29.97,SSW,198,0.0,0.0,85,0.00,,---,0.00,VWS V15.00,2017-07-23 08:56:00,
2017-07-23 05:01:00,74.9,70.1,29.98,SSW,198,0.0,0.0,85,0.00,,---,0.00,VWS V15.00,2017-07-23 09:01:00,
2017-07-23 05:06:00,75.0,70.2,29.97,SSW,198,0.0,0.0,85,0.00,,---,0.00,VWS V15.00,2017-07-23 09:06:00,
2017-07-23 05:11:00,75.0,70.2,29.97,SSW,198,0.0,0.0,85,0.00,,---,0.00,VWS V15.00,2017-07-23 09:11:00,
2017-07-23 05:16:00,75.0,70.2,29.97,SSW,198,0.0,0.0,85,0.00,,---,0.00,VWS V15.00,2017-07-23 09:16:00,
2017-07-23 05:21:00,75.0,70.2,29.97,SSW,198,0.0,0.0,85,0.00,,---,0.00,VWS V15.00,2017-07-23 09:21:00,
2017-07-23 05:26:00,75.0,70.2,29.98,SSW,198,0.0,0.0,85,0.00,,---,0.00,VWS V15.00,2017-07-23 09:26:00,
2017-07-23 05:31:00,75.0,70.2,29.98,SSW,198,0.0,0.0,85,0.00,,---,0.00,VWS V15.00,2017-07-23 09:31:00,
2017-07-23 05:36:00,75.0,70.2,29.98,SSW,198,0.0,0.0,85,0.00,,---,0.00,VWS V15.00,2017-07-23 09:36:00,
2017-07-23 05:41:00,75.0,70.2,29.99,SSW,198,0.0,0.0,85,0.00,,---,0.00,VWS V15.00,2017-07-23 09:41:00,
2017-07-23 05:46:00,75.1,70.3,29.99,SSW,198,0.0,0.0,85,0.00,,---,0.00,VWS V15.00,2017-07-23 09:46:00,
2017-07-23 05:51:00,75.1,70.3,29.99,SSW,198,0.0,0.0,85,0.00,,---,0.00,VWS V15.00,2017-07-23 09:51:00,
2017-07-23 05:56:00,75.1,70.3,29.99,SSW,198,0.0,0.0,85,0.00,,---,0.00,VWS V15.00,2017-07-23 09:56:00,
2017-07-23 06:01:00,75.1,70.3,29.99,SSW,198,0.0,0.0,85,0.00,,---,0.00,VWS V15.00,2017-07-23 10:01:00,
2017-07-23 06:06:00,75.1,70.3,29.99,SSW,198,0.0,0.0,85,0.00,,---,0.00,VWS V15.00,2017-07-23 10:06:00,
2017-07-23 06:11:00,75.1,70.3,29.99,SSW,198,0.0,0.0,85,0.00,,---,0.00,VWS V15.00,2017-07-23 10:11:00,
2017-07-23 06:16:00,75.1,70.3,29.99,SSW,198,0.0,0.0,85,0.00,,---,0.00,VWS V15.00,2017-07-23 10:16:00,
2017-07-23 06:21:00,75.1,70.3,29.99,SSW,198,0.0,0.0,85,0.00,,---,0.00,VWS V15.00,2017-07-23 10:21:00,
2017-07-23 06:26:00,75.1,70.3,29.98,SSW,198,0.0,0.0,85,0.00,,---,0.00,VWS V15.00,2017-07-23 10:26:00,
2017-07-23 06:31:00,75.1,70.3,29.98,SSW,198,0.0,0.0,85,0.00,,---,0.00,VWS V15.00,2017-07-23 10:31:00,
2017-07-23 06:32:00,75.1,70.3,29.98,SSW,198,0.0,0.0,85,0.00,,---,0.00,VWS V15.00,2017-07-23 10:32:00,
2017-07-23 06:37:00,75.1,70.3,29.98,SSW,198,0.0,0.0,85,0.00,,---,0.00,VWS V15.00,2017-07-23 10:37:00,
2017-07-23 06:42:00,75.1,70.3,29.98,SSW,198,0.0,0.0,85,0.00,,---,0.00,VWS V15.00,2017-07-23 10:42:00,
2017-07-23 06:47:00,75.1,70.3,29.99,SSW,198,0.0,0.0,85,0.00,,---,0.00,VWS V15.00,2017-07-23 10:47:00,
2017-07-23 06:51:00,75.0,70.2,29.99,SSW,197,0.0,1.0,85,0.00,,---,0.00,VWS V15.00,2017-07-23 10:51:00,
2017-07-23 06:56:00,75.0,69.8,29.99,SSW,196,1.0,3.0,84,0.00,,---,0.00,VWS V15.00,2017-07-23 10:56:00,
2017-07-23 07:01:00,75.0,69.8,29.99,SSW,196,0.0,0.0,84,0.00,,---,0.00,VWS V15.00,2017-07-23 11:01:00,
2017-07-23 07:06:00,75.1,69.9,29.99,SSW,196,2.0,2.0,84,0.00,,---,0.00,VWS V15.00,2017-07-23 11:06:00,
2017-07-23 07:11:00,75.1,69.9,29.99,South,169,2.0,5.0,84,0.00,,---,0.00,VWS V15.00,2017-07-23 11:11:00,
2017-07-23 07:16:00,75.1,69.9,29.99,South,169,4.0,4.0,84,0.00,,---,0.00,VWS V15.00,2017-07-23 11:16:00,
2017-07-23 07:21:00,75.1,69.9,29.99,SSE,166,2.0,3.0,84,0.00,,---,0.00,VWS V15.00,2017-07-23 11:21:00,
2017-07-23 07:26:00,75.2,70.0,29.99,SSE,166,0.0,0.0,84,0.00,,---,0.00,VWS V15.00,2017-07-23 11:26:00,
2017-07-23 07:31:00,75.2,70.0,29.99,SSE,166,0.0,0.0,84,0.00,,---,0.00,VWS V15.00,2017-07-23 11:31:00,
2017-07-23 07:36:00,75.2,70.0,30.00,SSE,166,0.0,0.0,84,0.00,,---,0.00,VWS V15.00,2017-07-23 11:36:00,
2017-07-23 07:41:00,75.3,70.1,30.00,SSE,166,0.0,0.0,84,0.00,,---,0.00,VWS V15.00,2017-07-23 11:41:00,
2017-07-23 07:46:00,75.3,70.1,30.00,SSE,166,0.0,0.0,84,0.00,,---,0.00,VWS V15.00,2017-07-23 11:46:00,
2017-07-23 07:51:00,75.5,70.3,30.00,SSE,166,0.0,1.0,84,0.00,,---,0.00,VWS V15.00,2017-07-23 11:51:00,
2017-07-23 07:56:00,75.5,70.3,30.01,SSE,166,0.0,0.0,84,0.00,,---,0.00,VWS V15.00,2017-07-23 11:56:00,
2017-07-23 08:01:00,75.5,70.3,30.01,SSE,166,0.0,0.0,84,0.00,,---,0.00,VWS V15.00,2017-07-23 12:01:00,
2017-07-23 08:06:00,75.5,70.3,30.01,SSE,166,0.0,0.0,84,0.00,,---,0.00,VWS V15.00,2017-07-23 12:06:00,
2017-07-23 08:11:00,75.6,70.4,30.01,SSE,166,0.0,0.0,84,0.00,,---,0.00,VWS V15.00,2017-07-23 12:11:00,
2017-07-23 08:16:00,75.6,70.4,30.01,SSE,166,0.0,0.0,84,0.00,,---,0.00,VWS V15.00,2017-07-23 12:16:00,
2017-07-23 08:21:00,75.6,70.8,30.01,SSE,166,0.0,0.0,85,0.00,,---,0.00,VWS V15.00,2017-07-23 12:21:00,
2017-07-23 08:26:00,75.7,70.9,30.01,SSE,166,0.0,0.0,85,0.00,,---,0.00,VWS V15.00,2017-07-23 12:26:00,
2017-07-23 08:31:00,75.8,70.6,30.01,SSE,166,0.0,0.0,84,0.00,,---,0.00,VWS V15.00,2017-07-23 12:31:00,
2017-07-23 08:36:00,76.0,70.8,30.02,SSE,161,0.0,0.0,84,0.00,,---,0.00,VWS V15.00,2017-07-23 12:36:00,
2017-07-23 08:41:00,76.1,71.3,30.02,SSE,161,0.0,0.0,85,0.00,,---,0.00,VWS V15.00,2017-07-23 12:41:00,
2017-07-23 08:46:00,76.4,71.6,30.02,SSE,161,0.0,0.0,85,0.00,,---,0.00,VWS V15.00,2017-07-23 12:46:00,
2017-07-23 08:51:00,76.6,71.8,30.02,SSE,161,0.0,0.0,85,0.00,,---,0.00,VWS V15.00,2017-07-23 12:51:00,
2017-07-23 08:56:00,76.8,72.3,30.02,SSW,204,0.0,0.0,86,0.00,,---,0.00,VWS V15.00,2017-07-23 12:56:00,
2017-07-23 09:01:00,77.1,72.6,30.01,SSW,204,0.0,0.0,86,0.00,,---,0.00,VWS V15.00,2017-07-23 13:01:00,
2017-07-23 09:06:00,77.5,73.3,30.01,South,169,0.0,0.0,87,0.01,,---,0.01,VWS V15.00,2017-07-23 13:06:00,
2017-07-23 09:11:00,78.1,74.3,30.01,SSW,196,0.0,0.0,88,0.01,,---,0.01,VWS V15.00,2017-07-23 13:11:00,
2017-07-23 09:16:00,78.6,75.4,30.02,SSE,163,1.0,1.0,90,0.01,,---,0.01,VWS V15.00,2017-07-23 13:16:00,
2017-07-23 09:21:00,78.9,75.7,30.02,South,186,4.0,5.0,90,0.01,,---,0.01,VWS V15.00,2017-07-23 13:21:00,
2017-07-23 09:26:00,79.4,76.2,30.02,SSE,154,5.0,7.0,90,0.01,,---,0.01,VWS V15.00,2017-07-23 13:26:00,
2017-07-23 09:27:00,79.5,76.3,30.01,SSE,162,7.0,8.0,90,0.01,,---,0.01,VWS V15.00,2017-07-23 13:27:00,
2017-07-23 09:32:00,80.0,76.1,30.02,South,180,2.0,8.0,88,0.01,,---,0.01,VWS V15.00,2017-07-23 13:32:00,
2017-07-23 09:37:00,80.7,77.2,30.01,SE,137,7.0,7.0,89,0.01,,---,0.01,VWS V15.00,2017-07-23 13:37:00,
2017-07-23 09:42:00,81.6,77.7,30.01,SSE,153,5.0,8.0,88,0.01,,---,0.01,VWS V15.00,2017-07-23 13:42:00,
2017-07-23 09:47:00,82.2,78.3,30.01,South,182,3.0,5.0,88,0.01,,---,0.01,VWS V15.00,2017-07-23 13:47:00,
2017-07-23 09:52:00,82.7,77.4,30.01,South,184,6.0,8.0,84,0.01,,---,0.01,VWS V15.00,2017-07-23 13:52:00,
2017-07-23 09:57:00,82.6,76.6,30.01,South,180,6.0,8.0,82,0.01,,---,0.01,VWS V15.00,2017-07-23 13:57:00,
2017-07-23 10:02:00,82.5,76.1,30.01,South,178,6.0,8.0,81,0.01,,---,0.01,VWS V15.00,2017-07-23 14:02:00,
2017-07-23 10:07:00,82.8,76.8,30.02,SSW,196,7.0,9.0,82,0.00,,---,0.01,VWS V15.00,2017-07-23 14:07:00,
2017-07-23 10:12:00,83.0,76.9,30.02,SSE,168,6.0,8.0,82,0.00,,---,0.01,VWS V15.00,2017-07-23 14:12:00,
2017-07-23 10:17:00,83.1,76.7,30.01,SSE,158,6.0,9.0,81,0.00,,---,0.01,VWS V15.00,2017-07-23 14:17:00,
2017-07-23 10:22:00,83.0,76.2,30.01,SSE,150,8.0,8.0,80,0.00,,---,0.01,VWS V15.00,2017-07-23 14:22:00,
2017-07-23 10:27:00,83.3,76.5,30.01,South,184,6.0,9.0,80,0.00,,---,0.01,VWS V15.00,2017-07-23 14:27:00,
2017-07-23 10:32:00,83.4,76.6,30.01,South,188,7.0,10.0,80,0.00,,---,0.01,VWS V15.00,2017-07-23 14:32:00,
2017-07-23 10:37:00,83.2,76.4,30.01,SSE,155,5.0,7.0,80,0.00,,---,0.01,VWS V15.00,2017-07-23 14:37:00,
2017-07-23 10:42:00,83.1,76.7,30.01,South,171,4.0,7.0,81,0.00,,---,0.01,VWS V15.00,2017-07-23 14:42:00,
2017-07-23 10:47:00,82.9,76.1,30.01,SSW,194,5.0,7.0,80,0.00,,---,0.01,VWS V15.00,2017-07-23 14:47:00,
2017-07-23 10:52:00,82.7,75.9,30.01,South,181,6.0,6.0,80,0.00,,---,0.01,VWS V15.00,2017-07-23 14:52:00,
2017-07-23 10:57:00,82.4,76.0,30.01,SSE,162,6.0,8.0,81,0.00,,---,0.01,VWS V15.00,2017-07-23 14:57:00,
2017-07-23 11:02:00,82.2,75.8,30.01,SSE,165,3.0,7.0,81,0.00,,---,0.01,VWS V15.00,2017-07-23 15:02:00,
2017-07-23 11:07:00,82.0,75.6,30.01,South,182,4.0,6.0,81,0.00,,---,0.01,VWS V15.00,2017-07-23 15:07:00,
2017-07-23 11:12:00,81.8,75.8,30.02,South,186,2.0,5.0,82,0.00,,---,0.01,VWS V15.00,2017-07-23 15:12:00,
2017-07-23 11:17:00,81.7,75.7,30.02,South,178,3.0,4.0,82,0.00,,---,0.01,VWS V15.00,2017-07-23 15:17:00,
2017-07-23 11:22:00,81.0,74.2,30.04,WNW,282,5.0,15.0,80,0.00,,---,0.01,VWS V15.00,2017-07-23 15:22:00,
2017-07-23 11:27:00,79.1,73.8,30.04,West,265,6.0,11.0,84,0.03,,---,0.04,VWS V15.00,2017-07-23 15:27:00,
2017-07-23 11:32:00,76.9,73.1,30.05,NNW,329,5.0,8.0,88,0.32,,---,0.33,VWS V15.00,2017-07-23 15:32:00,